Le Mars, IA

3:55 PM CST on February 08, 2016 (GMT -0600)
Le Mars Municipal

Weather History for KLRJ - November, 2013

Change the Weather History Date:

Wednesday, November 6, 2013

  Actual Average Record
Temperature  
Mean Temperature 32 °F -  
Max Temperature 37 °F 51 °F 76 °F (1980)
Min Temperature 26 °F 29 °F 10 °F (1993)
Degree Days  
Heating Degree Days 34    
Moisture  
Dew Point 29 °F    
Average Humidity 90    
Maximum Humidity 100    
Minimum Humidity 75    
Precipitation  
Precipitation 0.00 in - - ()
Sea Level Pressure  
Sea Level Pressure 30.18 in    
Wind  
Wind Speed 7 mph (West)    
Max Wind Speed 15 mph    
Max Gust Speed 18 mph    
Visibility 10 miles    
Events Rain , Snow    
Averages and records for this station are not official NWS values.
T = Trace of Precipitation, MM = Missing Value Source: NWS Daily Summary

Daily Weather History Graph

Daily Weather History Graph

Search for Another Location

Airport or City:

Trip Planner

Search our weather history database for the weather conditions in past years. The results will help you decide how hot, cold, wet, or windy it might be!

Date:

Astronomy

Nov. 06, 2013 Rise Set
Actual Time 7:05 AM CST 5:10 PM CST
Civil Twilight 6:35 AM CST 5:40 PM CST
Nautical Twilight 6:02 AM CST 6:14 PM CST
Astronomical Twilight 5:28 AM CST 6:47 PM CST
Moon 10:23 AM CST (11/6) 8:14 PM CST (11/6)
Length of Visible Light 11h 04m
Length of Day
10h 05m
Waxing Crescent, 14% of the Moon is Illuminated
Nov 6
Waxing Crescent
Nov 9
First Quarter
Nov 17
Full
Nov 25
Last Quarter
Dec 2
New

Hourly Weather History & Observations

Time (CST) Temp. Windchill Dew Point Humidity Pressure Visibility Wind Dir Wind Speed Gust Speed Precip Events Conditions
12:35 AM 32.0 °F 22.5 °F 30.2 °F 93% 30.09 in 6.0 mi NNW 12.7 mph 18.4 mph N/A Rain Light Rain
12:55 AM 32.0 °F 21.6 °F 30.2 °F 93% 30.09 in 9.0 mi North 15.0 mph - N/A   Light Drizzle
1:15 AM 32.0 °F 22.5 °F 30.2 °F 93% 30.10 in 10.0 mi North 12.7 mph - N/A   Overcast
1:35 AM 32.0 °F 24.2 °F 30.2 °F 93% 30.11 in 10.0 mi North 9.2 mph 17.3 mph N/A Rain Light Rain
1:55 AM 32.0 °F 23.0 °F 30.2 °F 93% 30.10 in 9.0 mi North 11.5 mph - N/A Snow Light Snow
2:15 AM 32.0 °F 23.6 °F 30.2 °F 93% 30.10 in 6.0 mi North 10.4 mph - N/A Snow Light Snow
2:35 AM 32.0 °F 24.2 °F 30.2 °F 93% 30.11 in 9.0 mi North 9.2 mph - N/A Rain Light Rain
2:55 AM 32.0 °F 23.0 °F 30.2 °F 93% 30.11 in 10.0 mi NNW 11.5 mph - N/A Rain Light Rain
3:15 AM 32.0 °F 24.2 °F 30.2 °F 93% 30.11 in 10.0 mi North 9.2 mph 15.0 mph N/A   Overcast
3:35 AM 32.0 °F 24.8 °F 30.2 °F 93% 30.11 in 10.0 mi NNW 8.1 mph - N/A   Overcast
3:55 AM 32.0 °F 24.2 °F 30.2 °F 93% 30.11 in 10.0 mi NNW 9.2 mph - N/A   Overcast
4:15 AM 30.2 °F 22.6 °F 28.4 °F 93% 30.11 in 10.0 mi NNW 8.1 mph - N/A   Mostly Cloudy
4:35 AM 30.2 °F 24.3 °F 28.4 °F 93% 30.12 in 10.0 mi North 5.8 mph - N/A   Overcast
4:55 AM 30.2 °F 25.4 °F 28.4 °F 93% 30.13 in 10.0 mi Variable 4.6 mph - N/A   Overcast
5:15 AM 30.2 °F 25.4 °F 28.4 °F 93% 30.14 in 10.0 mi North 4.6 mph - N/A   Overcast
5:35 AM 32.0 °F 25.6 °F 28.4 °F 87% 30.14 in 10.0 mi NNW 6.9 mph - N/A   Overcast
5:55 AM 32.0 °F 28.7 °F 30.2 °F 93% 30.15 in 10.0 mi NNW 3.5 mph - N/A   Overcast
6:15 AM 32.0 °F 27.5 °F 30.2 °F 93% 30.15 in 10.0 mi NW 4.6 mph - N/A   Overcast
6:35 AM 32.0 °F 27.5 °F 30.2 °F 93% 30.14 in 10.0 mi WNW 4.6 mph - N/A   Overcast
6:55 AM 32.0 °F 27.5 °F 30.2 °F 93% 30.15 in 10.0 mi West 4.6 mph - N/A   Overcast
7:15 AM 30.2 °F 26.7 °F 30.2 °F 100% 30.15 in 10.0 mi WNW 3.5 mph - N/A   Overcast
7:35 AM 30.2 °F - 28.4 °F 93% 30.16 in 10.0 mi Calm Calm - N/A   Overcast
7:55 AM 30.2 °F 25.4 °F 28.4 °F 93% 30.17 in 10.0 mi West 4.6 mph - N/A   Overcast
8:15 AM 30.2 °F 25.4 °F 28.4 °F 93% 30.18 in 10.0 mi West 4.6 mph - N/A   Overcast
8:35 AM 30.2 °F 24.3 °F 28.4 °F 93% 30.19 in 10.0 mi West 5.8 mph - N/A   Scattered Clouds
8:55 AM 30.2 °F 24.3 °F 28.4 °F 93% 30.20 in 10.0 mi West 5.8 mph - N/A   Scattered Clouds
9:15 AM 30.2 °F 22.6 °F 28.4 °F 93% 30.20 in 10.0 mi West 8.1 mph - N/A   Partly Cloudy
9:35 AM 30.2 °F 24.3 °F 28.4 °F 93% 30.20 in 10.0 mi WNW 5.8 mph - N/A   Clear
9:55 AM 30.2 °F 24.3 °F 28.4 °F 93% 30.21 in 10.0 mi WNW 5.8 mph - N/A   Clear
10:15 AM 32.0 °F 25.6 °F 28.4 °F 87% 30.21 in 10.0 mi West 6.9 mph - N/A   Clear
10:35 AM 32.0 °F 25.6 °F 26.6 °F 80% 30.22 in 10.0 mi West 6.9 mph - N/A   Clear
10:55 AM 32.0 °F 26.4 °F 26.6 °F 80% 30.22 in 10.0 mi West 5.8 mph - N/A   Clear
11:15 AM 32.0 °F 26.4 °F 28.4 °F 87% 30.22 in 10.0 mi WNW 5.8 mph - N/A   Clear
11:35 AM 32.0 °F 26.4 °F 28.4 °F 87% 30.22 in 10.0 mi Variable 5.8 mph - N/A   Clear
11:55 AM 33.8 °F 29.6 °F 28.4 °F 81% 30.22 in 10.0 mi West 4.6 mph - N/A   Clear
12:15 PM 33.8 °F 27.0 °F 28.4 °F 81% 30.21 in 10.0 mi West 8.1 mph - N/A   Partly Cloudy
12:35 PM 33.8 °F 28.6 °F 28.4 °F 81% 30.21 in 10.0 mi Variable 5.8 mph - N/A   Partly Cloudy
12:55 PM 33.8 °F 29.6 °F 30.2 °F 87% 30.20 in 10.0 mi West 4.6 mph - N/A   Clear
1:15 PM 33.8 °F 27.0 °F 30.2 °F 87% 30.21 in 10.0 mi West 8.1 mph - N/A   Clear
1:35 PM 33.8 °F 27.7 °F 30.2 °F 87% 30.21 in 10.0 mi West 6.9 mph - N/A   Partly Cloudy
1:55 PM 35.6 °F 30.7 °F 30.2 °F 81% 30.21 in 10.0 mi West 5.8 mph - N/A   Clear
2:15 PM 35.6 °F 29.9 °F 30.2 °F 81% 30.21 in 10.0 mi Variable 6.9 mph - N/A   Clear
2:35 PM 35.6 °F 30.7 °F 30.2 °F 81% 30.21 in 10.0 mi WSW 5.8 mph - N/A   Clear
2:55 PM 35.6 °F 30.7 °F 28.4 °F 75% 30.21 in 10.0 mi WSW 5.8 mph - N/A   Clear
3:15 PM 37.4 °F 33.8 °F 30.2 °F 75% 30.20 in 10.0 mi West 4.6 mph - N/A   Clear
3:35 PM 37.4 °F 32.8 °F 30.2 °F 75% 30.20 in 10.0 mi West 5.8 mph - N/A   Clear
3:55 PM 37.4 °F 34.9 °F 30.2 °F 75% 30.20 in 10.0 mi WNW 3.5 mph - N/A   Clear
4:15 PM 37.4 °F 34.9 °F 30.2 °F 75% 30.20 in 10.0 mi West 3.5 mph - N/A   Clear
4:35 PM 35.6 °F - 30.2 °F 81% 30.20 in 10.0 mi Calm Calm - N/A   Clear
4:55 PM 35.6 °F - 30.2 °F 81% 30.20 in 10.0 mi Calm Calm - N/A   Clear
5:15 PM 33.8 °F 30.8 °F 30.2 °F 87% 30.21 in 10.0 mi WSW 3.5 mph - N/A   Clear
5:35 PM 33.8 °F - 30.2 °F 87% 30.21 in 10.0 mi Calm Calm - N/A   Scattered Clouds
5:55 PM 33.8 °F 29.6 °F 30.2 °F 87% 30.21 in 10.0 mi SSW 4.6 mph - N/A   Scattered Clouds
6:15 PM 32.0 °F 28.7 °F 30.2 °F 93% 30.21 in 10.0 mi South 3.5 mph - N/A   Clear
6:35 PM 32.0 °F 27.5 °F 30.2 °F 93% 30.21 in 10.0 mi SSW 4.6 mph - N/A   Clear
6:55 PM 30.2 °F 26.7 °F 28.4 °F 93% 30.21 in 10.0 mi SSW 3.5 mph - N/A   Clear
7:15 PM 30.2 °F 26.7 °F 28.4 °F 93% 30.21 in 10.0 mi South 3.5 mph - N/A   Clear
7:35 PM 30.2 °F 25.4 °F 28.4 °F 93% 30.21 in 10.0 mi South 4.6 mph - N/A   Clear
7:55 PM 28.4 °F 23.3 °F 26.6 °F 93% 30.21 in 10.0 mi South 4.6 mph - N/A   Clear
8:15 PM 30.2 °F 25.4 °F 28.4 °F 93% 30.21 in 10.0 mi SSW 4.6 mph - N/A   Clear
8:35 PM 30.2 °F - 28.4 °F 93% 30.22 in 10.0 mi Calm Calm - N/A   Scattered Clouds
8:55 PM 30.2 °F - 28.4 °F 93% 30.22 in 10.0 mi Calm Calm - N/A   Partly Cloudy
9:15 PM 30.2 °F 25.4 °F 28.4 °F 93% 30.23 in - South 4.6 mph - N/A   Clear
9:35 PM 30.2 °F 25.4 °F 28.4 °F 93% 30.23 in 10.0 mi South 4.6 mph - N/A   Clear
9:55 PM 28.4 °F 24.6 °F 26.6 °F 93% 30.23 in 10.0 mi SSW 3.5 mph - N/A   Clear
10:15 PM 28.4 °F 24.6 °F 28.4 °F 100% 30.23 in 10.0 mi South 3.5 mph - N/A   Clear
10:35 PM 28.4 °F - 26.6 °F 93% 30.23 in 10.0 mi Calm Calm - N/A   Clear
10:55 PM 26.6 °F 22.6 °F 26.6 °F 100% 30.23 in 10.0 mi SSW 3.5 mph - N/A   Clear
11:15 PM 26.6 °F - 26.6 °F 100% 30.23 in 10.0 mi Calm Calm - N/A   Clear
11:35 PM 26.6 °F - 26.6 °F 100% 30.23 in 10.0 mi Calm Calm - N/A   Clear
11:55 PM 26.6 °F 22.6 °F 26.6 °F 100% 30.23 in 10.0 mi South 3.5 mph - N/A   Clear